Time,TemperatureF,DewpointF,PressureIn,WindDirection,WindDirectionDegrees,WindSpeedMPH,WindSpeedGustMPH,Humidity,HourlyPrecipIn,Conditions,Clouds,dailyrainin,SoftwareType,DateUTC
2013-08-20 00:00:00,64.2,60.9,29.95,WSW,248,0.0,0.0,89,0.00,RA,,0.00,WeatherDisplay:10.37,2013-08-20 04:00:00,
2013-08-20 00:01:00,64.2,61.2,29.95,WSW,248,0.0,0.0,90,0.00,RA,,0.00,WeatherDisplay:10.37,2013-08-20 04:01:00,
2013-08-20 00:02:00,64.0,61.0,29.95,WSW,248,0.0,0.0,90,0.00,RA,,0.00,WeatherDisplay:10.37,2013-08-20 04:02:00,
2013-08-20 00:03:00,64.0,61.0,29.95,WSW,248,0.0,0.0,90,0.00,RA,,0.00,WeatherDisplay:10.37,2013-08-20 04:03:00,
2013-08-20 00:05:00,64.0,61.0,29.95,WSW,238,0.0,0.0,90,0.00,RA,,0.00,WeatherDisplay:10.37,2013-08-20 04:05:00,
2013-08-20 00:10:00,63.9,60.9,29.95,SW,234,0.0,0.0,90,0.00,CLR,,0.00,WeatherDisplay:10.37,2013-08-20 04:10:00,
2013-08-20 00:15:00,63.5,60.9,29.95,SW,233,0.0,0.0,91,0.00,CLR,,0.00,WeatherDisplay:10.37,2013-08-20 04:15:00,
2013-08-20 00:20:00,63.1,60.4,29.95,WSW,248,0.0,0.0,91,0.00,CLR,,0.00,WeatherDisplay:10.37,2013-08-20 04:20:00,
2013-08-20 00:25:00,63.0,60.3,29.96,WSW,248,0.0,0.0,91,0.00,CLR,,0.00,WeatherDisplay:10.37,2013-08-20 04:25:00,
2013-08-20 00:30:00,63.0,60.6,29.96,WSW,248,0.0,0.0,92,0.00,CLR,,0.00,WeatherDisplay:10.37,2013-08-20 04:30:00,
2013-08-20 00:35:00,62.8,60.4,29.96,WSW,248,0.0,0.0,92,0.00,CLR,,0.00,WeatherDisplay:10.37,2013-08-20 04:35:00,
2013-08-20 00:40:00,62.8,60.4,29.96,WSW,248,0.0,0.0,92,0.00,CLR,,0.00,WeatherDisplay:10.37,2013-08-20 04:40:00,
2013-08-20 00:45:00,62.8,60.7,29.96,WSW,248,0.0,0.0,93,0.00,CLR,,0.00,WeatherDisplay:10.37,2013-08-20 04:45:00,
2013-08-20 00:50:00,62.6,60.5,29.96,SW,225,0.0,0.0,93,0.00,CLR,,0.00,WeatherDisplay:10.37,2013-08-20 04:50:00,
2013-08-20 00:55:00,62.4,60.3,29.96,SW,225,0.0,0.0,93,0.00,CLR,,0.00,WeatherDisplay:10.37,2013-08-20 04:55:00,
2013-08-20 01:00:00,62.4,60.3,29.96,WSW,248,0.0,0.0,93,0.00,CLR,,0.00,WeatherDisplay:10.37,2013-08-20 05:00:00,
2013-08-20 01:05:00,62.1,60.1,29.96,WSW,248,0.0,0.0,93,0.00,CLR,,0.00,WeatherDisplay:10.37,2013-08-20 05:05:00,
2013-08-20 01:10:00,62.1,60.1,29.96,WSW,248,0.0,0.0,93,0.00,CLR,,0.00,WeatherDisplay:10.37,2013-08-20 05:10:00,
2013-08-20 01:15:00,61.7,59.7,29.96,WSW,248,0.0,0.0,93,0.00,CLR,,0.00,WeatherDisplay:10.37,2013-08-20 05:15:00,
2013-08-20 01:20:00,61.5,59.5,29.96,WNW,292,0.0,0.0,93,0.00,CLR,,0.00,WeatherDisplay:10.37,2013-08-20 05:20:00,
2013-08-20 01:25:00,61.5,59.5,29.96,WNW,292,0.0,0.0,93,0.00,CLR,,0.00,WeatherDisplay:10.37,2013-08-20 05:25:00,
2013-08-20 01:30:00,61.7,60.0,29.96,NW,315,0.0,0.0,94,0.00,CLR,,0.00,WeatherDisplay:10.37,2013-08-20 05:30:00,
2013-08-20 01:35:00,61.7,60.3,29.96,ESE,112,0.0,0.0,95,0.00,CLR,,0.00,WeatherDisplay:10.37,2013-08-20 05:35:00,
2013-08-20 01:40:00,61.7,60.3,29.96,SSW,202,0.0,0.0,95,0.00,CLR,,0.00,WeatherDisplay:10.37,2013-08-20 05:40:00,
2013-08-20 01:45:00,61.7,60.3,29.96,SSW,202,0.0,0.0,95,0.00,CLR,,0.00,WeatherDisplay:10.37,2013-08-20 05:45:00,
2013-08-20 01:50:00,61.5,60.1,29.95,SW,225,0.0,0.0,95,0.00,CLR,,0.00,WeatherDisplay:10.37,2013-08-20 05:50:00,
2013-08-20 01:55:00,61.2,59.8,29.95,South,180,0.0,0.0,95,0.00,CLR,,0.00,WeatherDisplay:10.37,2013-08-20 05:55:00,
2013-08-20 02:00:00,61.0,59.6,29.95,ESE,112,0.0,0.0,95,0.00,CLR,,0.00,WeatherDisplay:10.37,2013-08-20 06:00:00,
2013-08-20 02:05:00,61.0,59.6,29.95,SW,225,0.0,0.0,95,0.00,CLR,,0.00,WeatherDisplay:10.37,2013-08-20 06:05:00,
2013-08-20 02:10:00,61.0,59.6,29.95,WSW,248,0.0,0.0,95,0.00,CLR,,0.00,WeatherDisplay:10.37,2013-08-20 06:10:00,
2013-08-20 02:15:00,61.0,59.6,29.95,SW,225,0.0,0.0,95,0.00,CLR,,0.00,WeatherDisplay:10.37,2013-08-20 06:15:00,
2013-08-20 02:20:00,60.8,59.4,29.95,WSW,248,0.0,0.0,95,0.00,CLR,,0.00,WeatherDisplay:10.37,2013-08-20 06:20:00,
2013-08-20 02:25:00,60.8,59.4,29.95,East,90,0.0,0.0,95,0.00,CLR,,0.00,WeatherDisplay:10.37,2013-08-20 06:25:00,
2013-08-20 02:30:00,60.6,59.2,29.95,ENE,68,0.0,0.0,95,0.00,CLR,,0.00,WeatherDisplay:10.37,2013-08-20 06:30:00,
2013-08-20 02:35:00,60.4,59.0,29.95,SW,225,0.0,0.0,95,0.00,CLR,,0.00,WeatherDisplay:10.37,2013-08-20 06:35:00,
2013-08-20 02:40:00,60.3,58.9,29.95,West,270,0.0,0.0,95,0.00,CLR,,0.00,WeatherDisplay:10.37,2013-08-20 06:40:00,
2013-08-20 02:45:00,60.3,58.9,29.95,WSW,248,0.0,0.0,95,0.00,CLR,,0.00,WeatherDisplay:10.37,2013-08-20 06:45:00,
2013-08-20 02:50:00,60.3,58.9,29.95,WSW,248,0.0,0.0,95,0.00,CLR,,0.00,WeatherDisplay:10.37,2013-08-20 06:50:00,
2013-08-20 02:55:00,60.3,58.9,29.95,WSW,248,0.0,0.0,95,0.00,CLR,,0.00,WeatherDisplay:10.37,2013-08-20 06:55:00,
2013-08-20 03:00:00,60.3,59.2,29.95,WSW,248,0.0,0.0,96,0.00,CLR,,0.00,WeatherDisplay:10.37,2013-08-20 07:00:00,
2013-08-20 03:05:00,60.3,59.2,29.95,SW,225,0.0,0.0,96,0.00,CLR,,0.00,WeatherDisplay:10.37,2013-08-20 07:05:00,
2013-08-20 03:10:00,60.1,59.0,29.95,SW,225,0.0,0.0,96,0.00,CLR,,0.00,WeatherDisplay:10.37,2013-08-20 07:10:00,
2013-08-20 03:15:00,59.9,58.8,29.95,WSW,248,0.0,0.0,96,0.00,CLR,,0.00,WeatherDisplay:10.37,2013-08-20 07:15:00,
2013-08-20 03:20:00,59.9,58.8,29.95,WSW,248,0.0,0.0,96,0.00,CLR,,0.00,WeatherDisplay:10.37,2013-08-20 07:20:00,
2013-08-20 03:25:00,59.7,58.6,29.96,WSW,248,0.0,0.0,96,0.00,CLR,,0.00,WeatherDisplay:10.37,2013-08-20 07:25:00,
2013-08-20 03:30:00,59.5,58.4,29.96,WSW,248,0.0,0.0,96,0.00,CLR,,0.00,WeatherDisplay:10.37,2013-08-20 07:30:00,
2013-08-20 03:35:00,59.5,58.4,29.96,WSW,248,0.0,0.0,96,0.00,CLR,,0.00,WeatherDisplay:10.37,2013-08-20 07:35:00,
2013-08-20 03:40:00,59.5,58.4,29.96,WSW,248,0.0,0.0,96,0.00,CLR,,0.00,WeatherDisplay:10.37,2013-08-20 07:40:00,
2013-08-20 03:45:00,59.5,58.4,29.96,SW,225,0.0,0.0,96,0.00,CLR,,0.00,WeatherDisplay:10.37,2013-08-20 07:45:00,
2013-08-20 03:50:00,59.7,58.6,29.95,SW,225,0.0,0.0,96,0.00,CLR,,0.00,WeatherDisplay:10.37,2013-08-20 07:50:00,
2013-08-20 03:55:00,59.7,58.6,29.95,SW,225,0.0,0.0,96,0.00,CLR,,0.00,WeatherDisplay:10.37,2013-08-20 07:55:00,
2013-08-20 04:00:00,59.7,58.6,29.96,SW,225,0.0,0.0,96,0.00,CLR,,0.00,WeatherDisplay:10.37,2013-08-20 08:00:00,
2013-08-20 04:05:00,59.5,58.4,29.96,SW,225,0.0,0.0,96,0.00,CLR,,0.00,WeatherDisplay:10.37,2013-08-20 08:05:00,
2013-08-20 04:10:00,59.5,58.4,29.96,WSW,248,0.0,0.0,96,0.00,CLR,,0.00,WeatherDisplay:10.37,2013-08-20 08:10:00,
2013-08-20 04:15:00,59.2,58.1,29.96,WSW,248,0.0,0.0,96,0.00,CLR,,0.00,WeatherDisplay:10.37,2013-08-20 08:15:00,
2013-08-20 04:20:00,58.8,57.7,29.96,SW,225,0.0,0.0,96,0.00,CLR,,0.00,WeatherDisplay:10.37,2013-08-20 08:20:00,
2013-08-20 04:25:00,58.6,57.5,29.96,SW,225,0.0,0.0,96,0.00,CLR,,0.00,WeatherDisplay:10.37,2013-08-20 08:25:00,
2013-08-20 04:30:00,58.6,57.5,29.96,SW,225,0.0,0.0,96,0.00,CLR,,0.00,WeatherDisplay:10.37,2013-08-20 08:30:00,
2013-08-20 04:35:00,58.5,57.4,29.97,WSW,248,0.0,0.0,96,0.00,CLR,,0.00,WeatherDisplay:10.37,2013-08-20 08:35:00,
2013-08-20 04:40:00,58.1,57.0,29.97,WSW,248,2.3,2.3,96,0.00,CLR,,0.00,WeatherDisplay:10.37,2013-08-20 08:40:00,
2013-08-20 04:45:00,57.9,56.8,29.97,West,270,1.7,1.7,96,0.00,CLR,,0.00,WeatherDisplay:10.37,2013-08-20 08:45:00,
2013-08-20 04:50:00,57.9,56.8,29.97,WSW,248,2.3,2.3,96,0.00,CLR,,0.00,WeatherDisplay:10.37,2013-08-20 08:50:00,
2013-08-20 04:55:00,58.1,57.0,29.97,West,270,1.1,0.0,96,0.00,CLR,,0.00,WeatherDisplay:10.37,2013-08-20 08:55:00,
2013-08-20 05:00:00,58.1,57.0,29.97,WSW,248,0.0,0.0,96,0.00,CLR,,0.00,WeatherDisplay:10.37,2013-08-20 09:00:00,
2013-08-20 05:05:00,57.9,56.8,29.97,South,180,0.0,0.0,96,0.00,CLR,,0.00,WeatherDisplay:10.37,2013-08-20 09:05:00,
2013-08-20 05:10:00,57.7,56.6,29.97,WSW,248,0.0,0.0,96,0.00,CLR,,0.00,WeatherDisplay:10.37,2013-08-20 09:10:00,
2013-08-20 05:15:00,57.6,56.5,29.97,WSW,248,0.0,0.0,96,0.00,CLR,,0.00,WeatherDisplay:10.37,2013-08-20 09:15:00,
2013-08-20 05:20:00,57.6,56.5,29.97,WSW,248,0.0,0.0,96,0.00,CLR,,0.00,WeatherDisplay:10.37,2013-08-20 09:20:00,
2013-08-20 05:25:00,57.6,56.8,29.97,West,270,0.0,0.0,97,0.00,CLR,,0.00,WeatherDisplay:10.37,2013-08-20 09:25:00,
2013-08-20 05:30:00,57.7,56.9,29.97,West,270,0.0,0.0,97,0.00,CLR,,0.00,WeatherDisplay:10.37,2013-08-20 09:30:00,
2013-08-20 05:35:00,57.9,57.1,29.97,WSW,248,0.0,0.0,97,0.00,CLR,,0.00,WeatherDisplay:10.37,2013-08-20 09:35:00,
2013-08-20 05:40:00,57.9,57.1,29.97,SW,225,0.0,0.0,97,0.00,CLR,,0.00,WeatherDisplay:10.37,2013-08-20 09:40:00,
2013-08-20 05:45:00,57.9,57.1,29.97,SW,225,0.0,0.0,97,0.00,CLR,,0.00,WeatherDisplay:10.37,2013-08-20 09:45:00,
2013-08-20 05:50:00,57.7,56.9,29.98,WSW,248,0.0,0.0,97,0.00,CLR,,0.00,WeatherDisplay:10.37,2013-08-20 09:50:00,
2013-08-20 05:55:00,57.7,56.9,29.98,WSW,248,0.0,0.0,97,0.00,CLR,,0.00,WeatherDisplay:10.37,2013-08-20 09:55:00,
2013-08-20 06:00:00,57.7,56.9,29.99,South,180,0.0,0.0,97,0.00,CLR,,0.00,WeatherDisplay:10.37,2013-08-20 10:00:00,
2013-08-20 06:05:00,57.6,56.8,29.99,East,90,0.0,0.0,97,0.00,CLR,,0.00,WeatherDisplay:10.37,2013-08-20 10:05:00,
2013-08-20 06:10:00,57.7,56.9,29.99,ESE,112,0.0,0.0,97,0.00,CLR,,0.00,WeatherDisplay:10.37,2013-08-20 10:10:00,
2013-08-20 06:15:00,57.6,56.8,29.99,ESE,112,0.0,0.0,97,0.00,CLR,,0.00,WeatherDisplay:10.37,2013-08-20 10:15:00,
2013-08-20 06:20:00,57.6,56.8,29.99,ESE,112,0.0,0.0,97,0.00,CLR,,0.00,WeatherDisplay:10.37,2013-08-20 10:20:00,
2013-08-20 06:25:00,57.6,56.8,30.00,WSW,248,0.0,0.0,97,0.00,CLR,,0.00,WeatherDisplay:10.37,2013-08-20 10:25:00,
2013-08-20 06:30:00,57.4,56.6,30.00,WSW,248,0.0,0.0,97,0.00,CLR,,0.00,WeatherDisplay:10.37,2013-08-20 10:30:00,
2013-08-20 06:35:00,57.2,56.4,30.00,WSW,248,0.0,0.0,97,0.00,CLR,,0.00,WeatherDisplay:10.37,2013-08-20 10:35:00,
2013-08-20 06:40:00,57.6,56.8,30.00,SSW,202,0.0,0.0,97,0.00,CLR,,0.00,WeatherDisplay:10.37,2013-08-20 10:40:00,
2013-08-20 06:45:00,57.7,56.9,30.00,NNE,22,0.0,0.0,97,0.00,CLR,,0.00,WeatherDisplay:10.37,2013-08-20 10:45:00,
2013-08-20 06:50:00,57.9,57.1,30.00,SSW,202,0.0,0.0,97,0.00,CLR,,0.00,WeatherDisplay:10.37,2013-08-20 10:50:00,
2013-08-20 06:55:00,57.9,57.1,30.00,SW,225,0.0,0.0,97,0.00,CLR,,0.00,WeatherDisplay:10.37,2013-08-20 10:55:00,
2013-08-20 07:00:00,57.7,56.9,30.01,SW,225,0.0,0.0,97,0.00,CLR,,0.00,WeatherDisplay:10.37,2013-08-20 11:00:00,
2013-08-20 07:05:00,57.9,57.1,30.01,SW,225,0.0,0.0,97,0.00,CLR,,0.00,WeatherDisplay:10.37,2013-08-20 11:05:00,
2013-08-20 07:10:00,59.0,58.2,30.01,ESE,112,0.0,0.0,97,0.00,CLR,,0.00,WeatherDisplay:10.37,2013-08-20 11:10:00,
2013-08-20 07:15:00,59.7,58.8,30.01,ENE,68,0.0,0.0,97,0.00,CLR,,0.00,WeatherDisplay:10.37,2013-08-20 11:15:00,
2013-08-20 07:20:00,60.1,59.2,30.01,ESE,112,0.0,0.0,97,0.00,CLR,,0.00,WeatherDisplay:10.37,2013-08-20 11:20:00,
2013-08-20 07:25:00,60.4,59.5,30.01,South,180,0.0,0.0,97,0.00,CLR,,0.00,WeatherDisplay:10.37,2013-08-20 11:25:00,
2013-08-20 07:30:00,59.9,58.2,30.01,ESE,112,0.0,0.0,94,0.00,CLR,,0.00,WeatherDisplay:10.37,2013-08-20 11:30:00,
2013-08-20 07:35:00,60.8,58.8,30.02,ESE,112,0.0,0.0,93,0.00,CLR,,0.00,WeatherDisplay:10.37,2013-08-20 11:35:00,
2013-08-20 07:40:00,61.3,59.3,30.02,ESE,112,0.0,0.0,93,0.00,CLR,,0.00,WeatherDisplay:10.37,2013-08-20 11:40:00,
2013-08-20 07:45:00,62.2,59.8,30.02,ESE,112,0.0,0.0,92,0.00,CLR,,0.00,WeatherDisplay:10.37,2013-08-20 11:45:00,
2013-08-20 07:50:00,63.1,60.4,30.01,NE,45,0.0,0.0,91,0.00,CLR,,0.00,WeatherDisplay:10.37,2013-08-20 11:50:00,
2013-08-20 07:55:00,64.0,60.7,30.01,West,270,0.0,0.0,89,0.00,CLR,,0.00,WeatherDisplay:10.37,2013-08-20 11:55:00,
2013-08-20 08:00:00,64.8,60.8,30.02,SSW,202,2.3,2.3,87,0.00,CLR,,0.00,WeatherDisplay:10.37,2013-08-20 12:00:00,
2013-08-20 08:05:00,65.7,61.1,30.02,South,180,0.0,0.0,85,0.00,CLR,,0.00,WeatherDisplay:10.37,2013-08-20 12:05:00,
2013-08-20 08:10:00,66.4,61.4,30.02,SW,225,0.0,0.0,84,0.00,CLR,,0.00,WeatherDisplay:10.37,2013-08-20 12:10:00,
2013-08-20 08:15:00,66.9,61.9,30.02,SSW,202,0.0,0.0,84,0.00,CLR,,0.00,WeatherDisplay:10.37,2013-08-20 12:15:00,
2013-08-20 08:20:00,66.2,61.6,30.02,SE,135,0.0,0.0,85,0.00,CLR,,0.00,WeatherDisplay:10.37,2013-08-20 12:20:00,
2013-08-20 08:25:00,68.7,63.0,30.02,South,180,0.0,0.0,82,0.00,CLR,,0.00,WeatherDisplay:10.37,2013-08-20 12:25:00,
2013-08-20 08:30:00,70.0,63.5,30.02,South,180,0.0,0.0,80,0.00,CLR,,0.00,WeatherDisplay:10.37,2013-08-20 12:30:00,
2013-08-20 08:35:00,71.4,64.2,30.02,SSE,158,0.0,0.0,78,0.00,CLR,,0.00,WeatherDisplay:10.37,2013-08-20 12:35:00,
2013-08-20 08:40:00,71.2,64.0,30.02,WSW,248,2.3,2.3,78,0.00,CLR,,0.00,WeatherDisplay:10.37,2013-08-20 12:40:00,
2013-08-20 08:45:00,70.5,63.7,30.02,South,180,1.7,1.7,79,0.00,CLR,,0.00,WeatherDisplay:10.37,2013-08-20 12:45:00,
2013-08-20 08:50:00,71.1,64.6,30.02,South,180,0.0,0.0,80,0.00,CLR,,0.00,WeatherDisplay:10.37,2013-08-20 12:50:00,
2013-08-20 08:55:00,72.0,64.8,30.02,South,180,1.1,1.3,78,0.00,CLR,,0.00,WeatherDisplay:10.37,2013-08-20 12:55:00,
2013-08-20 09:00:00,72.3,64.7,30.03,ESE,112,2.3,2.3,77,0.00,CLR,,0.00,WeatherDisplay:10.37,2013-08-20 13:00:00,
2013-08-20 09:05:00,73.0,65.4,30.03,SW,225,1.7,1.7,77,0.00,CLR,,0.00,WeatherDisplay:10.37,2013-08-20 13:05:00,
2013-08-20 09:10:00,74.5,66.1,30.03,SW,225,3.5,3.5,75,0.00,CLR,,0.00,WeatherDisplay:10.37,2013-08-20 13:10:00,
2013-08-20 09:15:00,74.1,66.0,30.03,South,180,1.1,1.1,76,0.00,CLR,,0.00,WeatherDisplay:10.37,2013-08-20 13:15:00,
2013-08-20 09:20:00,75.0,65.4,30.03,SSW,202,3.5,3.5,72,0.00,CLR,,0.00,WeatherDisplay:10.37,2013-08-20 13:20:00,
2013-08-20 09:25:00,75.9,66.2,30.03,SE,135,2.3,2.3,72,0.00,CLR,,0.00,WeatherDisplay:10.37,2013-08-20 13:25:00,
2013-08-20 09:30:00,77.2,67.1,30.03,SW,225,2.3,2.3,71,0.00,CLR,,0.00,WeatherDisplay:10.37,2013-08-20 13:30:00,
2013-08-20 09:35:00,75.0,66.1,30.03,SSW,202,3.5,3.5,74,0.00,CLR,,0.00,WeatherDisplay:10.37,2013-08-20 13:35:00,
2013-08-20 09:40:00,71.6,64.7,30.03,West,270,3.5,3.5,79,0.00,CLR,,0.00,WeatherDisplay:10.37,2013-08-20 13:40:00,
2013-08-20 09:45:00,69.6,63.9,30.03,SW,225,4.6,4.6,82,0.00,CLR,,0.00,WeatherDisplay:10.37,2013-08-20 13:45:00,
2013-08-20 09:50:00,70.2,64.4,30.04,SW,225,1.1,1.4,82,0.00,CLR,,0.00,WeatherDisplay:10.37,2013-08-20 13:50:00,
2013-08-20 09:55:00,70.7,64.2,30.04,WSW,248,2.3,2.3,80,0.00,CLR,,0.00,WeatherDisplay:10.37,2013-08-20 13:55:00,
2013-08-20 10:00:00,70.9,64.4,30.04,WSW,248,2.7,2.7,80,0.00,CLR,,0.00,WeatherDisplay:10.37,2013-08-20 14:00:00,
2013-08-20 10:05:00,74.7,65.9,30.04,South,180,2.3,2.3,74,0.00,CLR,,0.00,WeatherDisplay:10.37,2013-08-20 14:05:00,
2013-08-20 10:10:00,75.7,66.4,30.04,West,270,1.1,1.1,73,0.00,CLR,,0.00,WeatherDisplay:10.37,2013-08-20 14:10:00,
2013-08-20 10:15:00,75.4,66.1,30.04,ESE,112,3.5,3.5,73,0.00,CLR,,0.00,WeatherDisplay:10.37,2013-08-20 14:15:00,
2013-08-20 10:20:00,74.1,66.0,30.04,SSW,202,3.5,3.5,76,0.00,CLR,,0.00,WeatherDisplay:10.37,2013-08-20 14:20:00,
2013-08-20 10:25:00,72.7,65.4,30.05,SW,225,3.5,3.5,78,0.00,CLR,,0.00,WeatherDisplay:10.37,2013-08-20 14:25:00,
2013-08-20 10:30:00,76.3,66.6,30.05,WSW,248,2.3,2.3,72,0.00,CLR,,0.00,WeatherDisplay:10.37,2013-08-20 14:30:00,
2013-08-20 10:35:00,75.4,65.7,30.04,West,270,2.3,2.3,72,0.00,CLR,,0.00,WeatherDisplay:10.37,2013-08-20 14:35:00,
2013-08-20 10:40:00,75.7,66.4,30.04,SW,225,3.5,3.5,73,0.00,CLR,,0.00,WeatherDisplay:10.37,2013-08-20 14:40:00,
2013-08-20 10:45:00,74.7,66.6,30.04,West,270,2.3,2.3,76,0.00,CLR,,0.00,WeatherDisplay:10.37,2013-08-20 14:45:00,
2013-08-20 10:50:00,77.2,67.1,30.04,SSW,202,3.5,3.5,71,0.00,CLR,,0.00,WeatherDisplay:10.37,2013-08-20 14:50:00,
2013-08-20 10:55:00,75.7,66.4,30.04,West,270,3.5,3.5,73,0.00,CLR,,0.00,WeatherDisplay:10.37,2013-08-20 14:55:00,
2013-08-20 11:00:00,75.0,65.0,30.05,WSW,248,5.8,5.8,71,0.00,CLR,,0.00,WeatherDisplay:10.37,2013-08-20 15:00:00,
2013-08-20 11:05:00,78.8,66.0,30.05,WSW,248,4.7,4.7,65,0.00,CLR,,0.00,WeatherDisplay:10.37,2013-08-20 15:05:00,
2013-08-20 11:10:00,76.1,65.6,30.05,SW,225,4.6,4.6,70,0.00,CLR,,0.00,WeatherDisplay:10.37,2013-08-20 15:10:00,
2013-08-20 11:15:00,75.9,64.6,30.05,WSW,248,5.8,5.8,68,0.00,CLR,,0.00,WeatherDisplay:10.37,2013-08-20 15:15:00,
2013-08-20 11:20:00,77.5,65.2,30.05,SW,225,3.5,3.5,66,0.00,CLR,,0.00,WeatherDisplay:10.37,2013-08-20 15:20:00,
2013-08-20 11:25:00,78.3,66.0,30.04,West,270,3.2,3.2,66,0.00,CLR,,0.00,WeatherDisplay:10.37,2013-08-20 15:25:00,
2013-08-20 11:30:00,76.3,65.0,30.04,WSW,248,3.5,3.5,68,0.00,CLR,,0.00,WeatherDisplay:10.37,2013-08-20 15:30:00,
2013-08-20 11:35:00,78.1,64.9,30.04,SW,225,3.5,3.5,64,0.00,CLR,,0.00,WeatherDisplay:10.37,2013-08-20 15:35:00,
2013-08-20 11:40:00,76.8,64.6,30.04,West,270,3.2,3.2,66,0.00,CLR,,0.00,WeatherDisplay:10.37,2013-08-20 15:40:00,
2013-08-20 11:45:00,79.2,66.9,30.04,SW,225,5.8,5.8,66,0.00,CLR,,0.00,WeatherDisplay:10.37,2013-08-20 15:45:00,
2013-08-20 11:50:00,83.7,67.8,30.04,South,180,4.6,4.6,59,0.00,CLR,,0.00,WeatherDisplay:10.37,2013-08-20 15:50:00,
2013-08-20 11:55:00,82.0,67.2,30.04,SSE,158,4.2,4.2,61,0.00,CLR,,0.00,WeatherDisplay:10.37,2013-08-20 15:55:00,
2013-08-20 12:00:00,78.4,66.1,30.04,WSW,248,4.6,4.6,66,0.00,CLR,,0.00,WeatherDisplay:10.37,2013-08-20 16:00:00,
2013-08-20 12:05:00,80.2,66.5,30.04,SSW,202,5.8,5.8,63,0.00,CLR,,0.00,WeatherDisplay:10.37,2013-08-20 16:05:00,
2013-08-20 12:10:00,82.0,66.3,30.04,ESE,112,5.8,5.8,59,0.00,CLR,,0.00,WeatherDisplay:10.37,2013-08-20 16:10:00,
2013-08-20 12:15:00,81.5,64.8,30.04,SW,225,5.8,5.8,57,0.00,CLR,,0.00,WeatherDisplay:10.37,2013-08-20 16:15:00,
2013-08-20 12:20:00,81.5,65.3,30.04,East,90,3.5,3.5,58,0.00,CLR,,0.00,WeatherDisplay:10.37,2013-08-20 16:20:00,
2013-08-20 12:25:00,86.5,62.6,30.04,SSW,202,4.7,4.7,45,0.00,CLR,,0.00,WeatherDisplay:10.37,2013-08-20 16:25:00,
2013-08-20 12:30:00,82.9,61.2,30.04,SE,135,4.6,4.6,48,0.00,CLR,,0.00,WeatherDisplay:10.37,2013-08-20 16:30:00,
2013-08-20 12:36:00,81.9,62.5,30.04,NNW,338,3.5,3.5,52,0.00,CLR,,0.00,WeatherDisplay:10.37,2013-08-20 16:36:00,
2013-08-20 12:41:00,86.0,64.0,30.04,SW,225,6.9,6.9,48,0.00,CLR,,0.00,WeatherDisplay:10.37,2013-08-20 16:41:00,
2013-08-20 12:46:00,86.0,63.4,30.04,West,270,3.5,3.5,47,0.00,CLR,,0.00,WeatherDisplay:10.37,2013-08-20 16:46:00,
2013-08-20 12:51:00,85.5,63.6,30.04,SW,225,3.5,3.5,48,0.00,CLR,,0.00,WeatherDisplay:10.37,2013-08-20 16:51:00,
2013-08-20 12:56:00,81.9,62.5,30.04,West,270,6.3,6.3,52,0.00,CLR,,0.00,WeatherDisplay:10.37,2013-08-20 16:56:00,
2013-08-20 13:01:00,84.7,62.2,30.03,WSW,248,5.3,5.3,47,0.00,CLR,,0.00,WeatherDisplay:10.37,2013-08-20 17:01:00,
2013-08-20 13:06:00,80.4,61.2,30.03,West,270,5.8,5.8,52,0.00,CLR,,0.00,WeatherDisplay:10.37,2013-08-20 17:06:00,
2013-08-20 13:11:00,81.3,61.4,30.03,SW,225,4.7,4.7,51,0.00,CLR,,0.00,WeatherDisplay:10.37,2013-08-20 17:11:00,
2013-08-20 13:16:00,87.6,61.7,30.03,WSW,248,5.8,5.8,42,0.00,CLR,,0.00,WeatherDisplay:10.37,2013-08-20 17:16:00,
2013-08-20 13:21:00,79.7,60.5,30.03,West,270,3.5,3.5,52,0.00,CLR,,0.00,WeatherDisplay:10.37,2013-08-20 17:21:00,
2013-08-20 13:26:00,82.9,61.2,30.03,SW,225,5.8,5.8,48,0.00,CLR,,0.00,WeatherDisplay:10.37,2013-08-20 17:26:00,
2013-08-20 13:31:00,85.5,62.4,30.03,SW,225,3.5,3.5,46,0.00,OVC,,0.00,WeatherDisplay:10.37,2013-08-20 17:31:00,
2013-08-20 13:36:00,85.8,63.2,30.03,SW,225,4.2,4.2,47,0.00,OVC,,0.00,WeatherDisplay:10.37,2013-08-20 17:36:00,
2013-08-20 13:41:00,80.1,60.9,30.03,East,90,7.8,7.8,52,0.00,OVC,,0.00,WeatherDisplay:10.37,2013-08-20 17:41:00,
2013-08-20 13:46:00,79.3,61.2,30.03,ESE,112,8.1,8.1,54,0.00,OVC,,0.00,WeatherDisplay:10.37,2013-08-20 17:46:00,
2013-08-20 13:51:00,78.6,60.6,30.02,ESE,112,5.8,5.8,54,0.00,OVC,,0.00,WeatherDisplay:10.37,2013-08-20 17:51:00,
2013-08-20 13:56:00,79.3,60.1,30.02,ESE,112,4.6,4.6,52,0.00,OVC,,0.00,WeatherDisplay:10.37,2013-08-20 17:56:00,
2013-08-20 14:01:00,79.2,60.6,30.03,North,360,4.6,4.6,53,0.00,SCT,,0.00,WeatherDisplay:10.37,2013-08-20 18:01:00,
2013-08-20 14:06:00,79.0,60.4,30.03,WNW,292,4.6,4.6,53,0.00,SCT,,0.00,WeatherDisplay:10.37,2013-08-20 18:06:00,
2013-08-20 14:11:00,78.8,60.2,30.02,WSW,248,5.8,5.8,53,0.00,SCT,,0.00,WeatherDisplay:10.37,2013-08-20 18:11:00,
2013-08-20 14:16:00,78.6,60.0,30.02,ESE,112,2.7,2.7,53,0.00,SCT,,0.00,WeatherDisplay:10.37,2013-08-20 18:16:00,
2013-08-20 14:21:00,78.6,60.0,30.02,ESE,112,4.6,4.6,53,0.00,SCT,,0.00,WeatherDisplay:10.37,2013-08-20 18:21:00,
2013-08-20 14:26:00,79.2,60.1,30.02,ESE,112,3.5,3.5,52,0.00,SCT,,0.00,WeatherDisplay:10.37,2013-08-20 18:26:00,
2013-08-20 14:31:00,79.9,61.2,30.02,SSE,158,3.5,3.5,53,0.00,SCT,,0.00,WeatherDisplay:10.37,2013-08-20 18:31:00,
2013-08-20 14:36:00,82.2,62.3,30.02,ESE,112,3.5,3.5,51,0.00,SCT,,0.00,WeatherDisplay:10.37,2013-08-20 18:36:00,
2013-08-20 14:41:00,81.3,61.4,30.02,SE,135,3.7,3.7,51,0.00,SCT,,0.00,WeatherDisplay:10.37,2013-08-20 18:41:00,
2013-08-20 14:46:00,81.9,62.5,30.01,SSE,158,4.2,4.2,52,0.00,SCT,,0.00,WeatherDisplay:10.37,2013-08-20 18:46:00,
2013-08-20 14:51:00,80.1,61.4,30.01,ESE,112,3.2,3.2,53,0.00,SCT,,0.00,WeatherDisplay:10.37,2013-08-20 18:51:00,
2013-08-20 14:56:00,79.9,61.2,30.01,SE,135,4.6,4.6,53,0.00,SCT,,0.00,WeatherDisplay:10.37,2013-08-20 18:56:00,
2013-08-20 15:01:00,79.5,61.4,30.01,SSE,158,2.3,2.3,54,0.00,SCT,,0.00,WeatherDisplay:10.37,2013-08-20 19:01:00,
2013-08-20 15:06:00,82.0,62.6,30.01,ESE,112,3.7,3.7,52,0.00,SCT,,0.00,WeatherDisplay:10.37,2013-08-20 19:06:00,
2013-08-20 15:11:00,81.7,62.4,30.00,South,180,0.0,0.0,52,0.00,SCT,,0.00,WeatherDisplay:10.37,2013-08-20 19:11:00,
2013-08-20 15:16:00,79.7,61.6,30.00,South,180,1.1,0.0,54,0.00,SCT,,0.00,WeatherDisplay:10.37,2013-08-20 19:16:00,
2013-08-20 15:21:00,81.7,62.4,30.00,WSW,248,1.7,1.7,52,0.00,SCT,,0.00,WeatherDisplay:10.37,2013-08-20 19:21:00,
2013-08-20 15:26:00,81.3,62.5,30.00,ESE,112,1.1,1.1,53,0.00,SCT,,0.00,WeatherDisplay:10.37,2013-08-20 19:26:00,
2013-08-20 15:31:00,82.0,61.5,30.00,ESE,112,1.1,1.5,50,0.00,FEW,,0.00,WeatherDisplay:10.37,2013-08-20 19:31:00,
2013-08-20 15:36:00,81.9,62.5,30.00,ESE,112,3.5,3.5,52,0.00,FEW,,0.00,WeatherDisplay:10.37,2013-08-20 19:36:00,
2013-08-20 15:41:00,80.8,62.6,30.00,ESE,112,3.5,3.5,54,0.00,FEW,,0.00,WeatherDisplay:10.37,2013-08-20 19:41:00,
2013-08-20 15:46:00,82.2,62.3,30.00,SSE,158,3.2,3.2,51,0.00,FEW,,0.00,WeatherDisplay:10.37,2013-08-20 19:46:00,
2013-08-20 15:51:00,82.6,63.2,30.00,SE,135,3.5,3.5,52,0.00,FEW,,0.00,WeatherDisplay:10.37,2013-08-20 19:51:00,
2013-08-20 15:56:00,81.1,62.3,30.00,SE,135,3.5,3.5,53,0.00,FEW,,0.00,WeatherDisplay:10.37,2013-08-20 19:56:00,
2013-08-20 16:01:00,79.5,61.4,29.99,SE,135,4.2,4.2,54,0.00,SCT,,0.00,WeatherDisplay:10.37,2013-08-20 20:01:00,
2013-08-20 16:06:00,83.3,63.8,29.99,SSE,158,3.5,3.5,52,0.00,SCT,,0.00,WeatherDisplay:10.37,2013-08-20 20:06:00,
2013-08-20 16:11:00,82.8,63.4,29.99,ESE,112,2.3,2.3,52,0.00,SCT,,0.00,WeatherDisplay:10.37,2013-08-20 20:11:00,
2013-08-20 16:16:00,80.8,62.6,29.99,East,90,5.8,5.8,54,0.00,SCT,,0.00,WeatherDisplay:10.37,2013-08-20 20:16:00,
2013-08-20 16:21:00,82.6,62.6,29.99,ESE,112,4.2,4.2,51,0.00,SCT,,0.00,WeatherDisplay:10.37,2013-08-20 20:21:00,
2013-08-20 16:26:00,80.4,62.2,29.99,ESE,112,4.6,4.6,54,0.00,SCT,,0.00,WeatherDisplay:10.37,2013-08-20 20:26:00,
2013-08-20 16:31:00,85.3,65.1,29.99,WSW,248,4.6,4.6,51,0.00,SCT,,0.00,WeatherDisplay:10.37,2013-08-20 20:31:00,
2013-08-20 16:36:00,86.2,63.6,29.99,WSW,248,2.3,2.3,47,0.00,SCT,,0.00,WeatherDisplay:10.37,2013-08-20 20:36:00,
2013-08-20 16:41:00,86.5,64.5,29.99,SW,225,5.8,5.8,48,0.00,SCT,,0.00,WeatherDisplay:10.37,2013-08-20 20:41:00,
2013-08-20 16:46:00,84.9,64.2,29.99,SSW,202,4.6,4.6,50,0.00,SCT,,0.00,WeatherDisplay:10.37,2013-08-20 20:46:00,
2013-08-20 16:51:00,84.4,64.3,29.99,SSW,202,4.6,4.6,51,0.00,SCT,,0.00,WeatherDisplay:10.37,2013-08-20 20:51:00,
2013-08-20 16:56:00,85.3,64.6,29.99,South,180,3.2,3.2,50,0.00,SCT,,0.00,WeatherDisplay:10.37,2013-08-20 20:56:00,
2013-08-20 17:01:00,84.7,64.0,29.99,West,270,4.6,4.6,50,0.00,FEW,,0.00,WeatherDisplay:10.37,2013-08-20 21:01:00,
2013-08-20 17:06:00,84.7,64.6,29.99,SW,225,4.2,4.2,51,0.00,FEW,,0.00,WeatherDisplay:10.37,2013-08-20 21:06:00,
2013-08-20 17:11:00,84.2,63.5,29.98,SW,225,5.8,5.8,50,0.00,FEW,,0.00,WeatherDisplay:10.37,2013-08-20 21:11:00,
2013-08-20 17:16:00,84.2,64.1,29.98,SW,225,4.6,4.6,51,0.00,FEW,,0.00,WeatherDisplay:10.37,2013-08-20 21:16:00,
2013-08-20 17:21:00,85.8,63.8,29.98,SSW,202,3.7,3.7,48,0.00,FEW,,0.00,WeatherDisplay:10.37,2013-08-20 21:21:00,
2013-08-20 17:26:00,84.9,64.2,29.98,SW,225,3.5,3.5,50,0.00,FEW,,0.00,WeatherDisplay:10.37,2013-08-20 21:26:00,
2013-08-20 17:31:00,84.4,63.7,29.98,WSW,248,3.5,3.5,50,0.00,FEW,,0.00,WeatherDisplay:10.37,2013-08-20 21:31:00,
2013-08-20 17:36:00,84.6,65.0,29.98,SSE,158,5.8,5.8,52,0.00,FEW,,0.00,WeatherDisplay:10.37,2013-08-20 21:36:00,
2013-08-20 17:41:00,84.6,63.9,29.98,SW,225,5.8,5.8,50,0.00,FEW,,0.00,WeatherDisplay:10.37,2013-08-20 21:41:00,
2013-08-20 17:46:00,83.8,63.2,29.98,South,180,3.5,3.5,50,0.00,FEW,,0.00,WeatherDisplay:10.37,2013-08-20 21:46:00,
2013-08-20 17:51:00,82.0,63.2,29.98,WSW,248,2.7,2.7,53,0.00,FEW,,0.00,WeatherDisplay:10.37,2013-08-20 21:51:00,
2013-08-20 17:56:00,84.4,63.7,29.98,SW,225,3.5,3.5,50,0.00,FEW,,0.00,WeatherDisplay:10.37,2013-08-20 21:56:00,
2013-08-20 18:01:00,85.1,64.4,29.98,SW,225,5.8,5.8,50,0.00,CLR,,0.00,WeatherDisplay:10.37,2013-08-20 22:01:00,
2013-08-20 18:06:00,85.6,63.7,29.98,SW,225,4.6,4.6,48,0.00,CLR,,0.00,WeatherDisplay:10.37,2013-08-20 22:06:00,
2013-08-20 18:11:00,85.8,63.8,29.97,WSW,248,3.5,3.5,48,0.00,CLR,,0.00,WeatherDisplay:10.37,2013-08-20 22:11:00,
2013-08-20 18:16:00,85.5,64.2,29.97,SW,225,3.5,3.6,49,0.00,CLR,,0.00,WeatherDisplay:10.37,2013-08-20 22:16:00,
2013-08-20 18:21:00,85.3,64.0,29.97,West,270,3.5,3.5,49,0.00,CLR,,0.00,WeatherDisplay:10.37,2013-08-20 22:21:00,
2013-08-20 18:26:00,84.9,63.6,29.98,SSW,202,4.6,4.6,49,0.00,CLR,,0.00,WeatherDisplay:10.37,2013-08-20 22:26:00,
2013-08-20 18:31:00,85.1,64.4,29.98,West,270,3.5,3.5,50,0.00,CLR,,0.00,WeatherDisplay:10.37,2013-08-20 22:31:00,
2013-08-20 18:36:00,85.6,64.8,29.97,SW,225,3.7,3.7,50,0.00,CLR,,0.00,WeatherDisplay:10.37,2013-08-20 22:36:00,
2013-08-20 18:41:00,84.6,64.5,29.97,WSW,248,3.5,3.5,51,0.00,CLR,,0.00,WeatherDisplay:10.37,2013-08-20 22:41:00,
2013-08-20 18:46:00,84.4,64.9,29.97,West,270,2.7,2.7,52,0.00,CLR,,0.00,WeatherDisplay:10.37,2013-08-20 22:46:00,
2013-08-20 18:51:00,83.8,65.4,29.97,South,180,3.5,3.5,54,0.00,CLR,,0.00,WeatherDisplay:10.37,2013-08-20 22:51:00,
2013-08-20 18:56:00,83.8,64.8,29.97,SSW,202,3.5,3.5,53,0.00,CLR,,0.00,WeatherDisplay:10.37,2013-08-20 22:56:00,
2013-08-20 19:01:00,83.3,64.9,29.97,SW,225,3.5,3.5,54,0.00,CLR,,0.00,WeatherDisplay:10.37,2013-08-20 23:01:00,
2013-08-20 19:06:00,83.1,65.3,29.97,WSW,248,2.3,2.3,55,0.00,CLR,,0.00,WeatherDisplay:10.37,2013-08-20 23:06:00,
2013-08-20 19:11:00,82.4,64.6,29.97,SW,225,3.5,3.5,55,0.00,CLR,,0.00,WeatherDisplay:10.37,2013-08-20 23:11:00,
2013-08-20 19:16:00,81.9,65.2,29.97,WSW,248,2.7,2.7,57,0.00,CLR,,0.00,WeatherDisplay:10.37,2013-08-20 23:16:00,
2013-08-20 19:21:00,81.5,65.3,29.97,SW,225,3.2,3.2,58,0.00,CLR,,0.00,WeatherDisplay:10.37,2013-08-20 23:21:00,
2013-08-20 19:26:00,81.1,64.9,29.98,SSW,202,3.5,3.5,58,0.00,CLR,,0.00,WeatherDisplay:10.37,2013-08-20 23:26:00,
2013-08-20 19:31:00,80.4,65.2,29.98,West,270,2.3,2.5,60,0.00,CLR,,0.00,WeatherDisplay:10.37,2013-08-20 23:31:00,
2013-08-20 19:36:00,80.6,65.4,29.98,SSE,158,1.1,1.1,60,0.00,CLR,,0.00,WeatherDisplay:10.37,2013-08-20 23:36:00,
2013-08-20 19:41:00,79.9,64.8,29.98,SSW,202,1.1,1.1,60,0.00,CLR,,0.00,WeatherDisplay:10.37,2013-08-20 23:41:00,
2013-08-20 19:46:00,79.5,63.9,29.98,SW,225,0.0,0.0,59,0.00,CLR,,0.00,WeatherDisplay:10.37,2013-08-20 23:46:00,
2013-08-20 19:51:00,79.0,64.9,29.98,West,270,0.0,0.0,62,0.00,CLR,,0.00,WeatherDisplay:10.37,2013-08-20 23:51:00,
2013-08-20 19:56:00,78.3,65.1,29.98,SW,225,1.7,1.7,64,0.00,CLR,,0.00,WeatherDisplay:10.37,2013-08-20 23:56:00,
2013-08-20 20:01:00,77.7,65.0,29.98,SW,225,1.7,1.7,65,0.00,CLR,,0.00,WeatherDisplay:10.37,2013-08-21 00:01:00,
2013-08-20 20:06:00,77.4,64.7,29.98,SW,225,0.0,0.0,65,0.00,CLR,,0.00,WeatherDisplay:10.37,2013-08-21 00:06:00,
2013-08-20 20:11:00,76.3,64.5,29.98,SSW,202,0.0,0.0,67,0.00,CLR,,0.00,WeatherDisplay:10.37,2013-08-21 00:11:00,
2013-08-20 20:16:00,76.1,63.9,29.98,South,180,0.0,0.0,66,0.00,CLR,,0.00,WeatherDisplay:10.37,2013-08-21 00:16:00,
2013-08-20 20:21:00,75.7,63.5,29.98,South,180,0.0,0.0,66,0.00,CLR,,0.00,WeatherDisplay:10.37,2013-08-21 00:21:00,
2013-08-20 20:26:00,75.0,65.0,29.99,West,270,0.0,0.0,71,0.00,CLR,,0.00,WeatherDisplay:10.37,2013-08-21 00:26:00,
2013-08-20 20:31:00,74.1,63.7,29.99,WSW,248,0.0,0.0,70,0.00,CLR,,0.00,WeatherDisplay:10.37,2013-08-21 00:31:00,
2013-08-20 20:36:00,73.6,64.0,29.99,WSW,248,0.0,0.0,72,0.00,CLR,,0.00,WeatherDisplay:10.37,2013-08-21 00:36:00,
2013-08-20 20:41:00,73.0,63.0,29.99,West,270,0.0,0.0,71,0.00,CLR,,0.00,WeatherDisplay:10.37,2013-08-21 00:41:00,
2013-08-20 20:46:00,73.0,62.6,29.99,West,270,0.0,0.0,70,0.00,CLR,,0.00,WeatherDisplay:10.37,2013-08-21 00:46:00,
2013-08-20 20:51:00,72.9,62.5,29.99,West,270,0.0,0.0,70,0.00,CLR,,0.00,WeatherDisplay:10.37,2013-08-21 00:51:00,
2013-08-20 20:56:00,72.5,63.0,29.99,West,270,0.0,0.0,72,0.00,CLR,,0.00,WeatherDisplay:10.37,2013-08-21 00:56:00,
2013-08-20 21:01:00,72.0,62.5,29.99,South,180,0.0,0.0,72,0.00,CLR,,0.00,WeatherDisplay:10.37,2013-08-21 01:01:00,
2013-08-20 21:06:00,71.6,62.5,29.99,SW,225,0.0,0.0,73,0.00,CLR,,0.00,WeatherDisplay:10.37,2013-08-21 01:06:00,
2013-08-20 21:11:00,71.4,62.3,30.00,SSW,202,0.0,0.0,73,0.00,CLR,,0.00,WeatherDisplay:10.37,2013-08-21 01:11:00,
2013-08-20 21:16:00,71.2,62.1,30.00,SSE,158,0.0,0.0,73,0.00,CLR,,0.00,WeatherDisplay:10.37,2013-08-21 01:16:00,
2013-08-20 21:19:00,71.1,62.0,30.00,SSE,158,0.0,0.0,73,0.00,CLR,,0.00,WeatherDisplay:10.37,2013-08-21 01:19:00,
2013-08-20 21:24:00,70.9,62.2,30.00,SW,225,0.0,0.0,74,0.00,CLR,,0.00,WeatherDisplay:10.37,2013-08-21 01:24:00,
2013-08-20 21:29:00,70.3,62.0,30.00,SW,225,0.0,0.0,75,0.00,CLR,,0.00,WeatherDisplay:10.37,2013-08-21 01:29:00,
2013-08-20 21:34:00,70.3,62.0,30.00,SSW,202,0.0,0.0,75,0.00,CLR,,0.00,WeatherDisplay:10.37,2013-08-21 01:34:00,
2013-08-20 21:39:00,70.2,62.6,30.00,SSW,202,0.0,0.0,77,0.00,CLR,,0.00,WeatherDisplay:10.37,2013-08-21 01:39:00,
2013-08-20 21:44:00,69.8,63.3,30.00,ESE,112,2.3,2.3,80,0.00,CLR,,0.00,WeatherDisplay:10.37,2013-08-21 01:44:00,
2013-08-20 21:49:00,69.4,63.3,30.01,ESE,112,2.3,2.3,81,0.00,CLR,,0.00,WeatherDisplay:10.37,2013-08-21 01:49:00,
2013-08-20 21:54:00,69.4,63.0,30.01,ESE,112,0.0,0.0,80,0.00,CLR,,0.00,WeatherDisplay:10.37,2013-08-21 01:54:00,
2013-08-20 21:59:00,69.4,62.6,30.01,ESE,112,0.0,0.0,79,0.00,CLR,,0.00,WeatherDisplay:10.37,2013-08-21 01:59:00,
2013-08-20 22:04:00,69.1,61.9,30.01,ESE,112,0.0,0.0,78,0.00,CLR,,0.00,WeatherDisplay:10.37,2013-08-21 02:04:00,
2013-08-20 22:09:00,68.5,62.4,30.01,WSW,248,0.0,0.0,81,0.00,CLR,,0.00,WeatherDisplay:10.37,2013-08-21 02:09:00,
2013-08-20 22:14:00,68.2,62.1,30.01,WSW,248,0.0,0.0,81,0.00,CLR,,0.00,WeatherDisplay:10.37,2013-08-21 02:14:00,
2013-08-20 22:19:00,68.0,62.3,30.01,SW,225,0.0,0.0,82,0.00,CLR,,0.00,WeatherDisplay:10.37,2013-08-21 02:19:00,
2013-08-20 22:24:00,68.0,61.6,30.01,ESE,112,0.0,0.0,80,0.00,CLR,,0.00,WeatherDisplay:10.37,2013-08-21 02:24:00,
2013-08-20 22:29:00,68.0,61.9,30.01,ESE,112,2.2,2.2,81,0.00,CLR,,0.00,WeatherDisplay:10.37,2013-08-21 02:29:00,
2013-08-20 22:34:00,67.6,62.6,30.01,SE,135,2.3,2.3,84,0.00,CLR,,0.00,WeatherDisplay:10.37,2013-08-21 02:34:00,
2013-08-20 22:39:00,68.2,62.8,30.01,ESE,112,2.3,2.3,83,0.00,CLR,,0.00,WeatherDisplay:10.37,2013-08-21 02:39:00,
2013-08-20 22:44:00,68.2,62.8,30.01,East,90,2.3,2.4,83,0.00,CLR,,0.00,WeatherDisplay:10.37,2013-08-21 02:44:00,
2013-08-20 22:49:00,68.2,62.8,30.01,ESE,112,2.7,2.7,83,0.00,CLR,,0.00,WeatherDisplay:10.37,2013-08-21 02:49:00,
2013-08-20 22:54:00,68.2,63.2,30.01,ESE,112,2.3,2.3,84,0.00,CLR,,0.00,WeatherDisplay:10.37,2013-08-21 02:54:00,
2013-08-20 22:59:00,68.0,63.0,30.01,ESE,112,0.0,0.0,84,0.00,CLR,,0.00,WeatherDisplay:10.37,2013-08-21 02:59:00,
2013-08-20 23:04:00,67.6,62.9,30.01,SE,135,1.7,1.7,85,0.00,CLR,,0.00,WeatherDisplay:10.37,2013-08-21 03:04:00,
2013-08-20 23:09:00,67.6,62.9,30.01,SE,135,0.0,0.0,85,0.00,CLR,,0.00,WeatherDisplay:10.37,2013-08-21 03:09:00,
2013-08-20 23:14:00,67.5,62.8,30.01,East,90,0.0,0.0,85,0.00,CLR,,0.00,WeatherDisplay:10.37,2013-08-21 03:14:00,
2013-08-20 23:19:00,66.9,62.6,30.01,ESE,112,1.1,1.1,86,0.00,CLR,,0.00,WeatherDisplay:10.37,2013-08-21 03:19:00,
2013-08-20 23:24:00,66.7,62.4,30.01,SE,135,0.0,0.0,86,0.00,CLR,,0.00,WeatherDisplay:10.37,2013-08-21 03:24:00,
2013-08-20 23:29:00,66.4,62.1,30.01,SW,225,0.0,0.0,86,0.00,CLR,,0.00,WeatherDisplay:10.37,2013-08-21 03:29:00,
2013-08-20 23:34:00,66.0,62.0,30.02,SW,225,0.0,0.0,87,0.00,CLR,,0.00,WeatherDisplay:10.37,2013-08-21 03:34:00,
2013-08-20 23:39:00,65.7,61.7,30.02,East,90,0.0,0.0,87,0.00,CLR,,0.00,WeatherDisplay:10.37,2013-08-21 03:39:00,
2013-08-20 23:44:00,65.7,61.7,30.02,East,90,0.0,0.0,87,0.00,CLR,,0.00,WeatherDisplay:10.37,2013-08-21 03:44:00,
2013-08-20 23:49:00,65.3,61.3,30.02,ESE,112,0.0,0.0,87,0.00,CLR,,0.00,WeatherDisplay:10.37,2013-08-21 03:49:00,
2013-08-20 23:54:00,65.5,61.5,30.02,ESE,112,0.0,0.0,87,0.00,CLR,,0.00,WeatherDisplay:10.37,2013-08-21 03:54:00,
2013-08-20 23:59:00,65.3,61.7,30.01,ESE,112,0.0,0.0,88,0.00,CLR,,0.00,WeatherDisplay:10.37,2013-08-21 03:59:00,